Location: Blackfoot
(53.5367°N, 112.7800°W)
Time: 03:21:53
(UTC-07:00)

Amateur Radio Satellites - All Passes

Search period start: 05 March 2015 02:51
Search period end: 06 March 2015 02:51
Location: Blackfoot, 53.5367°N, 112.7800°W

Satellite Date Start Highest point End Downlink Frequencies (MHz)
Time Altitude Azimuth
JAS-2 05 Mar 02:58:05 03:01:09 13° 75° (ENE) 03:04:46 435.910
BEESAT 3 05 Mar 02:58:33 02:59:33 11° 249° (WSW) 03:00:21 437.485
HORYU 2 05 Mar 03:03:51 03:06:47 17° 88° (E) 03:09:51 437.375
SO-50 05 Mar 03:08:15 03:12:55 61° 321° (NW) 03:17:46 436.795
AO-7 05 Mar 03:12:19 03:17:52 20° 83° (E) 03:23:43 29.400- 29.500
RS-15 05 Mar 03:18:55 03:29:32 49° 349° (N) 03:40:32 29.354- 29.394
YUBILEINY 05 Mar 03:20:22 03:29:18 87° 79° (ENE) 03:38:10 435.215
Gurwin Techsat 1B 05 Mar 03:32:59 03:38:21 89° 88° (E) 03:43:42 435.225
AIST 2 05 Mar 03:38:15 03:40:17 13° 248° (WSW) 03:42:08 435.215
Oscar 19 05 Mar 03:41:53 03:46:16 29° 301° (WNW) 03:50:35 437.125/150
ITAMSAT 1 05 Mar 03:45:32 03:50:43 61° 292° (WNW) 03:55:51 435.822/435.867
PCSat 05 Mar 04:15:44 04:21:07 57° 43° (NE) 04:26:29 145.827
MOZHAYETS 4 05 Mar 04:20:41 04:25:16 84° 258° (WSW) 04:29:54
AUBIESAT-1 05 Mar 04:23:58 04:27:04 32° 258° (WSW) 04:30:20 437.475
M-CUBED/EXP-1 PRIME 05 Mar 04:24:28 04:27:29 28° 259° (W) 04:30:37 437.505
STRAND 1 05 Mar 04:25:09 04:27:57 15° 49° (NE) 04:30:53 437.568
PRISM 05 Mar 04:28:38 04:31:14 16° 56° (NE) 04:33:56 437.425
HORYU 2 05 Mar 04:39:33 04:44:01 72° 288° (WNW) 04:48:28 437.375
JAS-2 05 Mar 04:40:49 04:47:59 53° 98° (E) 04:55:39 435.910
SO-50 05 Mar 04:50:18 04:54:21 26° 345° (NNW) 04:58:28 436.795
CUBESAT XI-V 05 Mar 04:51:05 04:54:54 26° 60° (ENE) 04:58:50 437.345
AO-7 05 Mar 05:04:01 05:12:22 73° 107° (ESE) 05:20:39 29.400- 29.500
Gurwin Techsat 1B 05 Mar 05:13:50 05:17:45 21° 306° (NW) 05:21:34 435.225
YUBILEINY 05 Mar 05:18:03 05:25:13 28° 282° (WNW) 05:32:08 435.215
ITAMSAT 1 05 Mar 05:26:27 05:29:20 15° 312° (NW) 05:32:02 435.822/435.867
RS-15 05 Mar 05:33:28 05:44:24 55° 21° (NNE) 05:55:49 29.354- 29.394
GONETS M04 05 Mar 05:37:05 05:40:21 12° 29° (NNE) 05:43:57
Cubesat XI-IV 05 Mar 05:54:13 05:58:21 22° 89° (E) 06:02:34 437.490
PCSat 05 Mar 05:59:27 06:04:23 36° 244° (WSW) 06:09:16 145.827
MOZHAYETS 4 05 Mar 06:01:02 06:03:21 13° 277° (W) 06:05:28
STRAND 1 05 Mar 06:01:13 06:06:18 64° 69° (ENE) 06:11:27 437.568
PRISM 05 Mar 06:02:03 06:06:13 83° 255° (WSW) 06:10:28 437.425
CUTE-I 05 Mar 06:02:14 06:06:37 25° 90° (E) 06:11:04 437.470
AIST 1 05 Mar 06:06:03 06:08:30 15° 83° (E) 06:11:07
HORYU 2 05 Mar 06:17:41 06:20:00 14° 308° (NW) 06:22:11 437.375
JAS-2 05 Mar 06:26:05 06:33:02 48° 297° (WNW) 06:40:23 435.910
CUBESAT XI-V 05 Mar 06:27:26 06:32:05 57° 260° (W) 06:36:47 437.345
SO-50 05 Mar 06:32:22 06:36:18 24° 9° (N) 06:40:17 436.795
AO-7 05 Mar 06:57:15 07:04:47 39° 310° (NW) 07:12:11 29.400- 29.500
GONETS M04 05 Mar 07:32:54 07:40:46 36° 59° (ENE) 07:48:45
Cubesat XI-IV 05 Mar 07:33:40 07:39:04 72° 290° (WNW) 07:44:25 437.490
PRISM 05 Mar 07:40:55 07:42:31 12° 276° (W) 07:43:57 437.425
AIST 1 05 Mar 07:41:14 07:45:38 78° 282° (WNW) 07:50:05
STRAND 1 05 Mar 07:41:48 07:46:00 24° 270° (W) 07:50:07 437.568
CUTE-I 05 Mar 07:41:51 07:47:11 64° 292° (WNW) 07:52:29 437.470
RS-15 05 Mar 07:46:28 07:57:47 81° 230° (SW) 08:09:37 29.354- 29.394
O/OREOS (USA 219) 05 Mar 08:02:06 08:02:57 11° 97° (E) 08:04:03 437.305
ANTELSAT 05 Mar 08:10:36 08:11:25 11° 51° (NE) 08:12:23 437.575/2403.000
JAS-2 05 Mar 08:12:25 08:16:41 17° 318° (NW) 08:20:54 435.910
SO-50 05 Mar 08:13:13 08:17:57 44° 32° (NNE) 08:22:42 436.795
COMPASS 1 05 Mar 08:16:10 08:16:55 10° 83° (E) 08:17:53 437.405
ISS 05 Mar 08:33:22 08:34:59 13° 143° (SE) 08:36:40 145.825
GOMX 1 05 Mar 08:39:35 08:43:15 25° 91° (E) 08:46:49 467.674
SEEDS 05 Mar 08:45:48 08:49:12 23° 91° (E) 08:52:40 437.485
BUGSAT 1 05 Mar 08:47:50 08:48:50 11° 51° (NE) 08:50:00 437.445
CINEMA 3 05 Mar 08:48:32 08:50:20 13° 84° (E) 08:52:16 145.822/145.860
BRITE-PL 05 Mar 08:49:11 08:53:37 44° 97° (E) 08:57:46 437.365/2234.400
AO-7 05 Mar 08:50:36 08:55:28 17° 335° (NNW) 09:00:09 29.400- 29.500
QB50P1 05 Mar 08:51:14 08:53:27 14° 55° (NE) 08:55:48 145.935-145.965
CANX-2 05 Mar 08:53:25 08:57:18 34° 95° (E) 09:01:12 2200.000
QB50P2 05 Mar 08:55:48 08:58:18 16° 56° (NE) 09:00:54 145.880/145.840
DOVE 4 05 Mar 09:00:39 09:04:21 28° 92° (E) 09:07:59 437.250
DELFI C3 05 Mar 09:01:51 09:02:35 10° 83° (E) 09:03:30 145.870
HO-68 05 Mar 09:03:59 09:10:52 46° 98° (E) 09:17:46 435.675
UNISAT 6 05 Mar 09:05:00 09:08:39 27° 63° (ENE) 09:12:19 437.425
DUCHIFAT 1 05 Mar 09:07:45 09:10:41 19° 58° (ENE) 09:13:42 145.980
CUTE 1.7 + AOD 2 05 Mar 09:11:28 09:15:34 45° 98° (E) 09:19:41 437.475
Cubesat XI-IV 05 Mar 09:14:54 09:18:23 17° 310° (NW) 09:21:44 437.490
ZACube-1 05 Mar 09:18:18 09:18:27 10° 82° (E) 09:18:49 437.345
AIST 1 05 Mar 09:21:59 09:24:11 13° 305° (NW) 09:26:15
CUTE-I 05 Mar 09:23:14 09:26:24 16° 312° (NW) 09:29:24 437.470
TIGRISAT 05 Mar 09:28:09 09:32:12 40° 67° (ENE) 09:36:15 435.000
POPSAT HIP 1 05 Mar 09:29:37 09:33:13 27° 63° (ENE) 09:36:53 437.405
GONETS M04 05 Mar 09:29:45 09:38:29 73° 264° (W) 09:47:12
POLYITAN 1 05 Mar 09:30:34 09:34:13 28° 63° (ENE) 09:37:54 437.675
O/OREOS (USA 219) 05 Mar 09:37:01 09:41:33 67° 116° (ESE) 09:46:09 437.305
UWE-3 05 Mar 09:41:42 09:44:47 20° 90° (E) 09:47:57 435.000/436.395/437.385
ANTELSAT 05 Mar 09:43:11 09:47:26 56° 70° (ENE) 09:51:39 437.575/2403.000
AAUSAT CUBESAT 2 05 Mar 09:44:19 09:48:29 60° 101° (E) 09:52:40 437.432
COMPASS 1 05 Mar 09:49:15 09:53:28 75° 102° (ESE) 09:57:42 437.405
NANOSAT C BR1 05 Mar 09:51:07 09:55:08 41° 66° (ENE) 09:59:10 145.865
SO-50 05 Mar 09:53:51 09:58:39 51° 233° (SW) 10:03:26 436.795
Oscar 11 05 Mar 09:58:16 10:02:25 43° 98° (E) 10:06:35 145.826/435.025
RS-15 05 Mar 09:59:31 10:08:50 30° 254° (WSW) 10:18:06 29.354- 29.394
ISS 05 Mar 10:07:45 10:10:47 40° 162° (SSE) 10:13:51 145.825
DANDE 05 Mar 10:11:04 10:13:14 20° 64° (ENE) 10:15:18 436.750
GOMX 1 05 Mar 10:17:25 10:21:42 45° 292° (WNW) 10:25:43 467.674
BUGSAT 1 05 Mar 10:19:20 10:23:31 57° 70° (ENE) 10:27:45 437.445
SEEDS 05 Mar 10:21:12 10:25:18 48° 291° (WNW) 10:29:23 437.485
CUSAT 1 05 Mar 10:23:06 10:25:37 36° 71° (ENE) 10:28:06 437.405
CINEMA 3 05 Mar 10:24:05 10:28:19 87° 286° (WNW) 10:32:28 145.822/145.860
QB50P1 05 Mar 10:24:27 10:28:45 81° 72° (ENE) 10:33:02 145.935-145.965
CUBEBUG 2 05 Mar 10:24:52 10:29:00 58° 101° (E) 10:33:06 437.445
DX 1 05 Mar 10:27:42 10:31:52 40° 98° (E) 10:35:59 434.975-435.025
BRITE-PL 05 Mar 10:28:00 10:32:02 29° 298° (WNW) 10:35:46 437.365/2234.400
QB50P2 05 Mar 10:29:22 10:33:40 90° 6° (N) 10:37:58 145.880/145.840
CANX-2 05 Mar 10:29:23 10:33:16 34° 295° (WNW) 10:37:07 2200.000
HUMSAT D 05 Mar 10:31:33 10:35:07 28° 94° (E) 10:38:43 437.325/437.525
DELFI C3 05 Mar 10:34:28 10:38:36 78° 105° (ESE) 10:42:42 145.870
DOVE 4 05 Mar 10:38:16 10:42:20 39° 294° (WNW) 10:46:13 437.250
CUBEBUG 1 05 Mar 10:39:07 10:41:11 13° 84° (E) 10:43:25 437.445
UNISAT 6 05 Mar 10:41:08 10:45:19 45° 262° (W) 10:49:28 437.425
DUCHIFAT 1 05 Mar 10:41:50 10:46:06 72° 257° (WSW) 10:50:23 145.980
AO-7 05 Mar 10:41:58 10:44:55 12° 4° (N) 10:47:55 29.400- 29.500
AISAT 05 Mar 10:44:46 10:48:39 29° 94° (E) 10:52:32 437.250
CUTE 1.7 + AOD 2 05 Mar 10:47:45 10:51:21 26° 297° (WNW) 10:54:54 437.475
FUNcube-1 05 Mar 10:49:10 10:53:20 70° 102° (ESE) 10:57:29 145.935
ZACube-1 05 Mar 10:51:32 10:55:43 74° 103° (ESE) 10:59:53 437.345
HO-68 05 Mar 10:51:50 10:58:45 51° 300° (WNW) 11:05:37 435.675
VELOX 1 05 Mar 10:52:46 10:56:48 33° 95° (E) 11:00:49 145.980
UKube-1 05 Mar 10:53:22 10:57:43 66° 103° (ESE) 11:02:02 .
POPSAT HIP 1 05 Mar 11:04:51 11:08:59 44° 262° (W) 11:13:06 437.405
TIGRISAT 05 Mar 11:05:19 11:09:07 28° 266° (W) 11:12:51 435.000
POLYITAN 1 05 Mar 11:05:56 11:10:02 42° 262° (W) 11:14:08 437.675
O/OREOS (USA 219) 05 Mar 11:17:32 11:21:25 26° 318° (NW) 11:25:18 437.305
UWE-3 05 Mar 11:17:38 11:21:43 54° 290° (WNW) 11:25:46 435.000/436.395/437.385
ESTCUBE 1 05 Mar 11:19:33 11:23:40 32° 94° (E) 11:27:48 437.505/2401.250
AAUSAT CUBESAT 2 05 Mar 11:20:39 11:23:50 21° 300° (WNW) 11:26:56 437.432
ANTELSAT 05 Mar 11:21:15 11:24:36 21° 270° (W) 11:27:51 437.575/2403.000
COMPASS 1 05 Mar 11:25:54 11:28:44 18° 302° (WNW) 11:31:31 437.405
NANOSAT C BR1 05 Mar 11:27:24 11:31:08 28° 266° (W) 11:34:51 145.865
GONETS M04 05 Mar 11:27:59 11:33:56 20° 287° (WNW) 11:39:34
50 SAT 05 Mar 11:32:08 11:36:06 77° 103° (ESE) 11:40:04 437.505
Oscar 11 05 Mar 11:34:44 11:38:29 28° 297° (WNW) 11:42:11 145.826/435.025
ISS 05 Mar 11:43:46 11:46:58 62° 181° (S) 11:50:09 145.825
Gurwin Techsat 1B 05 Mar 11:45:20 11:47:15 12° 45° (NE) 11:49:22 435.225
Oscar 19 05 Mar 11:47:10 11:51:32 30° 60° (ENE) 11:55:59 437.125/150
ITAMSAT 1 05 Mar 11:53:53 11:57:01 17° 50° (NE) 12:00:18 435.822/435.867
DANDE 05 Mar 11:54:37 11:56:28 16° 268° (W) 11:58:12 436.750
BUGSAT 1 05 Mar 11:56:07 11:59:23 21° 270° (W) 12:02:35 437.445
CUBEBUG 2 05 Mar 12:02:15 12:05:25 21° 300° (WNW) 12:08:30 437.445
CINEMA 3 05 Mar 12:02:37 12:04:57 14° 305° (NW) 12:07:09 145.822/145.860
QB50P1 05 Mar 12:02:44 12:05:15 15° 274° (W) 12:07:38 145.935-145.965
DX 1 05 Mar 12:04:09 12:08:02 31° 297° (WNW) 12:11:51 434.975-435.025
HUMSAT D 05 Mar 12:07:11 12:11:02 38° 293° (WNW) 12:14:51 437.325/437.525
QB50P2 05 Mar 12:08:09 12:10:18 13° 275° (W) 12:12:17 145.880/145.840
DELFI C3 05 Mar 12:10:42 12:13:20 17° 302° (WNW) 12:15:53 145.870
CUBEBUG 1 05 Mar 12:13:51 12:18:20 88° 105° (ESE) 12:22:44 437.445
AISAT 05 Mar 12:21:12 12:25:27 43° 293° (WNW) 12:29:37 437.250
DUCHIFAT 1 05 Mar 12:22:00 12:22:50 10° 277° (W) 12:23:26 145.980
FUNcube-1 05 Mar 12:26:24 12:29:17 18° 302° (WNW) 12:32:05 145.935
TISAT 1 05 Mar 12:27:09 12:31:01 33° 96° (E) 12:34:52 437.305
ZACube-1 05 Mar 12:28:53 12:31:39 17° 302° (WNW) 12:34:21 437.345
AO-7 05 Mar 12:29:07 12:34:35 20° 32° (NNE) 12:40:13 29.400- 29.500
VELOX 1 05 Mar 12:29:18 12:33:27 38° 295° (WNW) 12:37:32 145.980
UKube-1 05 Mar 12:30:14 12:33:30 21° 302° (WNW) 12:36:42 .
SPROUT 05 Mar 12:34:03 12:38:11 43° 98° (E) 12:42:17 437.525
HO-68 05 Mar 12:40:35 12:45:03 18° 322° (NW) 12:49:22 435.675
ESTCUBE 1 05 Mar 12:56:22 13:00:40 40° 294° (WNW) 13:04:54 437.505/2401.250
50 SAT 05 Mar 13:08:11 13:10:39 16° 302° (WNW) 13:13:01 437.505
JAS-2 05 Mar 13:19:40 13:22:25 13° 37° (NE) 13:25:29 435.910
ISS 05 Mar 13:20:06 13:23:06 36° 201° (SSW) 13:26:06 145.825
Gurwin Techsat 1B 05 Mar 13:21:04 13:26:09 48° 66° (ENE) 13:31:17 435.225
Oscar 19 05 Mar 13:25:38 13:30:41 55° 259° (W) 13:35:45 437.125/150
SWISSCUBE 05 Mar 13:29:50 13:34:03 29° 94° (E) 13:38:17 437.505
ITAMSAT 1 05 Mar 13:30:32 13:35:44 71° 70° (ENE) 13:41:00 435.822/435.867
BEESAT 05 Mar 13:37:50 13:42:07 32° 94° (E) 13:46:27 436.000
CUBEBUG 1 05 Mar 13:51:17 13:54:10 17° 305° (NW) 13:56:54 437.445
TISAT 1 05 Mar 14:02:59 14:06:51 34° 295° (WNW) 14:10:39 437.305
ITUPSAT 1 05 Mar 14:07:01 14:11:46 54° 100° (E) 14:16:30 437.325
HORYU 2 05 Mar 14:08:04 14:12:05 35° 64° (ENE) 14:16:08 437.375
SPROUT 05 Mar 14:10:26 14:14:09 28° 297° (WNW) 14:17:47 437.525
AO-7 05 Mar 14:17:47 14:25:41 50° 56° (NE) 14:33:38 29.400- 29.500
STARS 05 Mar 14:35:15 14:38:08 17° 88° (E) 14:41:08 437.465
KKS-1 05 Mar 14:35:43 14:39:23 25° 92° (E) 14:43:05 437.445
YUBILEINY 05 Mar 14:35:46 14:41:49 22° 74° (ENE) 14:48:12 435.215
ISS 05 Mar 14:57:51 14:58:50 11° 219° (SW) 14:59:44 145.825
JAS-2 05 Mar 15:00:20 15:05:49 43° 61° (ENE) 15:12:03 435.910
Gurwin Techsat 1B 05 Mar 15:01:31 15:06:21 34° 266° (W) 15:11:09 435.225
SWISSCUBE 05 Mar 15:07:30 15:12:09 47° 293° (WNW) 15:16:45 437.505
ITAMSAT 1 05 Mar 15:11:43 15:15:49 22° 271° (W) 15:19:50 435.822/435.867
BEESAT 05 Mar 15:15:34 15:20:09 44° 294° (WNW) 15:24:41 436.000
HORYU 2 05 Mar 15:44:40 15:48:46 35° 264° (W) 15:52:51 437.375
ITUPSAT 1 05 Mar 15:45:20 15:49:27 28° 300° (WNW) 15:53:30 437.325
Cubesat XI-IV 05 Mar 15:45:20 15:48:24 16° 49° (NE) 15:51:38 437.490
CUTE-I 05 Mar 15:52:57 15:56:19 17° 50° (NE) 15:59:49 437.470
M-CUBED/EXP-1 PRIME 05 Mar 16:00:50 16:01:50 11° 91° (E) 16:03:05 437.505
AO-7 05 Mar 16:10:23 16:18:33 55° 258° (WSW) 16:26:41 29.400- 29.500
MOZHAYETS 4 05 Mar 16:10:28 16:13:17 16° 86° (E) 16:16:15
STARS 05 Mar 16:10:46 16:15:10 71° 288° (WNW) 16:19:31 437.465
KKS-1 05 Mar 16:11:59 16:16:18 49° 292° (WNW) 16:20:35 437.445
O/OREOS (USA 219) 05 Mar 16:22:48 16:25:46 17° 33° (NNE) 16:28:49 437.305
YUBILEINY 05 Mar 16:28:38 16:37:22 79° 97° (E) 16:46:13 435.215
JAS-2 05 Mar 16:45:25 16:50:58 45° 265° (W) 16:57:14 435.910
SWISSCUBE 05 Mar 16:47:46 16:49:00 11° 313° (NW) 16:50:04 437.505
BEESAT 3 05 Mar 16:55:23 16:58:58 30° 121° (ESE) 17:02:38 437.485
BEESAT 05 Mar 16:56:42 16:56:56 10° 314° (NW) 16:56:59 436.000
Cubesat XI-IV 05 Mar 17:22:20 17:27:38 65° 69° (ENE) 17:33:01 437.490
BEESAT 2 05 Mar 17:24:11 17:28:08 45° 126° (SE) 17:32:09 435.950
CUTE-I 05 Mar 17:30:17 17:35:38 73° 71° (ENE) 17:41:02 437.470
AUBIESAT-1 05 Mar 17:32:24 17:36:36 62° 108° (ESE) 17:41:06 437.475
M-CUBED/EXP-1 PRIME 05 Mar 17:33:17 17:37:29 69° 109° (ESE) 17:42:01 437.505
AIST 2 05 Mar 17:40:23 17:44:06 30° 121° (ESE) 17:47:53 435.215
AIST 1 05 Mar 17:41:52 17:46:14 53° 74° (ENE) 17:50:33
MOZHAYETS 4 05 Mar 17:46:31 17:51:12 83° 286° (WNW) 17:55:51
STARS 05 Mar 17:48:46 17:50:56 13° 308° (NW) 17:52:58 437.465
KKS-1 05 Mar 17:51:37 17:52:02 10° 312° (NW) 17:52:16 437.445
HO-68 05 Mar 17:54:22 17:59:23 21° 43° (NE) 18:04:33 435.675
O/OREOS (USA 219) 05 Mar 18:01:33 18:06:10 64° 56° (NE) 18:10:43 437.305
STRAND 1 05 Mar 18:06:51 18:09:15 14° 83° (E) 18:11:54 437.568
AO-7 05 Mar 18:09:39 18:13:39 13° 283° (WNW) 18:17:07 29.400- 29.500
CUBESAT XI-V 05 Mar 18:18:07 18:21:58 24° 90° (E) 18:25:51 437.345
GOMX 1 05 Mar 18:18:29 18:20:46 13° 52° (NE) 18:23:10 467.674
CANX-2 05 Mar 18:21:26 18:21:30 10° 51° (NE) 18:21:44 2200.000
YUBILEINY 05 Mar 18:27:26 18:35:15 33° 303° (WNW) 18:43:01 435.215
BRITE-PL 05 Mar 18:28:45 18:32:45 22° 58° (ENE) 18:36:41 437.365/2234.400
BEESAT 3 05 Mar 18:32:50 18:36:54 53° 321° (NW) 18:41:00 437.485
DOVE 4 05 Mar 18:37:32 18:39:40 13° 53° (NE) 18:41:54 437.250
CUTE 1.7 + AOD 2 05 Mar 18:37:35 18:39:26 13° 54° (NE) 18:41:24 437.475
BEESAT 2 05 Mar 19:02:27 19:06:24 39° 326° (NNW) 19:10:23 435.950
Cubesat XI-IV 05 Mar 19:03:47 19:08:15 25° 270° (W) 19:12:38 437.490
AUBIESAT-1 05 Mar 19:07:51 19:11:13 24° 305° (NW) 19:14:43 437.475
PCSat 05 Mar 19:08:04 19:09:29 11° 103° (ESE) 19:11:12 145.827
AAUSAT CUBESAT 2 05 Mar 19:08:07 19:10:29 15° 56° (NE) 19:12:57 437.432
M-CUBED/EXP-1 PRIME 05 Mar 19:08:54 19:12:08 22° 306° (NW) 19:15:28 437.505
CUTE-I 05 Mar 19:12:06 19:16:19 22° 271° (W) 19:20:27 437.470
COMPASS 1 05 Mar 19:12:52 19:15:41 18° 58° (ENE) 19:18:36 437.405
PRISM 05 Mar 19:13:51 19:18:06 68° 103° (ESE) 19:22:19 437.425
AIST 2 05 Mar 19:18:18 19:22:32 56° 321° (NW) 19:26:49 435.215
AIST 1 05 Mar 19:20:11 19:23:35 22° 273° (W) 19:26:54
MOZHAYETS 4 05 Mar 19:24:56 19:27:49 16° 305° (NW) 19:30:34
Oscar 11 05 Mar 19:25:51 19:27:53 13° 54° (NE) 19:30:03 145.826/435.025
HO-68 05 Mar 19:38:57 19:45:59 66° 65° (ENE) 19:53:07 435.675
O/OREOS (USA 219) 05 Mar 19:41:39 19:45:13 22° 256° (WSW) 19:48:40 437.305
SEEDS 05 Mar 19:44:05 19:47:55 37° 66° (ENE) 19:51:49 437.485
STRAND 1 05 Mar 19:44:17 19:49:29 75° 104° (ESE) 19:54:38 437.568
CANX-2 05 Mar 19:52:30 19:56:37 54° 70° (ENE) 20:00:45 2200.000
GOMX 1 05 Mar 19:53:01 19:58:09 60° 70° (ENE) 20:02:59 467.674
CUBEBUG 2 05 Mar 19:54:33 19:57:26 18° 58° (ENE) 20:00:21 437.445
CUBESAT XI-V 05 Mar 19:55:07 19:59:46 55° 291° (WNW) 20:04:22 437.345
DELFI C3 05 Mar 19:55:11 19:57:48 17° 58° (ENE) 20:00:32 145.870
CINEMA 3 05 Mar 19:55:37 19:59:31 28° 63° (ENE) 20:03:20 145.822/145.860
DX 1 05 Mar 19:55:40 19:58:04 15° 53° (NE) 20:00:35 434.975-435.025
BRITE-PL 05 Mar 20:05:16 20:10:49 84° 255° (WSW) 20:16:03 437.365/2234.400
CUTE 1.7 + AOD 2 05 Mar 20:10:29 20:14:41 73° 74° (ENE) 20:18:55 437.475
DOVE 4 05 Mar 20:11:49 20:16:43 63° 72° (ENE) 20:21:23 437.250
BEESAT 3 05 Mar 20:12:36 20:15:49 21° 344° (NNW) 20:19:01 437.485
PHONESAT 2.4 05 Mar 20:13:56 20:14:29 10° 187° (S) 20:15:02 2401.200-2431.200
AISAT 05 Mar 20:15:50 20:17:17 12° 50° (NE) 20:18:54 437.250
FUNcube-1 05 Mar 20:16:31 20:19:30 19° 59° (ENE) 20:22:33 145.935
ZACube-1 05 Mar 20:18:55 20:22:02 20° 60° (ENE) 20:25:11 437.345
UKube-1 05 Mar 20:19:47 20:23:01 21° 58° (ENE) 20:26:20 .
VELOX 1 05 Mar 20:23:08 20:25:04 13° 51° (NE) 20:27:08 145.980
YUBILEINY 05 Mar 20:32:41 20:35:52 12° 334° (NNW) 20:38:46 435.215
AAUSAT CUBESAT 2 05 Mar 20:41:26 20:45:36 88° 255° (WSW) 20:49:47 437.432
BEESAT 2 05 Mar 20:42:32 20:45:35 19° 350° (N) 20:48:37 435.950
GONETS M04 05 Mar 20:43:41 20:50:44 30° 80° (E) 20:57:59
UWE-3 05 Mar 20:44:51 20:48:51 37° 66° (ENE) 20:52:48 435.000/436.395/437.385
PCSat 05 Mar 20:46:36 20:51:53 56° 122° (ESE) 20:57:14 145.827
COMPASS 1 05 Mar 20:46:50 20:50:59 70° 257° (WSW) 20:55:10 437.405
PRISM 05 Mar 20:50:07 20:53:13 20° 302° (WNW) 20:56:14 437.425
50 SAT 05 Mar 20:51:42 20:54:11 17° 58° (ENE) 20:56:45 437.505
ESTCUBE 1 05 Mar 20:51:45 20:53:40 13° 51° (NE) 20:55:43 437.505/2401.250
AIST 2 05 Mar 20:58:33 21:01:58 22° 344° (NNW) 21:05:22 435.215
Oscar 11 05 Mar 20:59:06 21:03:24 75° 74° (ENE) 21:07:45 145.826/435.025
SEEDS 05 Mar 21:20:06 21:23:50 30° 266° (W) 21:27:33 437.485
STRAND 1 05 Mar 21:24:11 21:28:15 23° 304° (NW) 21:32:13 437.568
HO-68 05 Mar 21:27:49 21:34:16 35° 267° (W) 21:40:40 435.675
DELFI C3 05 Mar 21:28:33 21:32:35 72° 257° (WSW) 21:36:39 145.870
CUBEBUG 2 05 Mar 21:29:17 21:33:43 77° 258° (WSW) 21:38:02 437.445
DX 1 05 Mar 21:29:17 21:33:42 80° 71° (ENE) 21:38:08 434.975-435.025
HUMSAT D 05 Mar 21:29:34 21:33:32 46° 69° (ENE) 21:37:32 437.325/437.525
CANX-2 05 Mar 21:29:40 21:32:55 21° 270° (W) 21:36:06 2200.000
CINEMA 3 05 Mar 21:32:07 21:36:37 46° 262° (W) 21:40:55 145.822/145.860
GOMX 1 05 Mar 21:32:18 21:36:37 25° 269° (W) 21:40:41 467.674
CUBESAT XI-V 05 Mar 21:34:33 21:36:19 12° 310° (NW) 21:37:55 437.345
CUBEBUG 1 05 Mar 21:40:52 21:44:32 26° 61° (ENE) 21:48:15 437.445
BRITE-PL 05 Mar 21:46:37 21:50:06 16° 275° (W) 21:53:18 437.365/2234.400
CUTE 1.7 + AOD 2 05 Mar 21:48:31 21:51:11 16° 273° (W) 21:53:44 437.475
AISAT 05 Mar 21:48:40 21:53:05 57° 69° (ENE) 21:57:31 437.250
DOVE 4 05 Mar 21:50:57 21:54:53 23° 270° (W) 21:58:35 437.250
FUNcube-1 05 Mar 21:51:13 21:55:30 68° 258° (WSW) 21:59:43 145.935
BEESAT 3 05 Mar 21:52:18 21:55:13 18° 8° (N) 21:58:09 437.485
TISAT 1 05 Mar 21:53:27 21:54:36 11° 51° (NE) 21:55:54 437.305
ZACube-1 05 Mar 21:53:48 21:58:05 63° 258° (WSW) 22:02:17 437.345
UKube-1 05 Mar 21:54:28 21:58:49 65° 258° (WSW) 22:03:11 .
VELOX 1 05 Mar 21:56:26 22:00:53 65° 71° (ENE) 22:05:21 145.980
SPROUT 05 Mar 22:01:00 22:03:07 14° 54° (NE) 22:05:23 437.525
RS-15 05 Mar 22:19:24 22:28:20 32° 107° (ESE) 22:37:40 29.354- 29.394
AAUSAT CUBESAT 2 05 Mar 22:20:12 22:21:59 12° 276° (W) 22:23:37 437.432
UWE-3 05 Mar 22:21:35 22:25:30 31° 266° (W) 22:29:17 435.000/436.395/437.385
BEESAT 2 05 Mar 22:21:58 22:25:05 20° 13° (NNE) 22:28:13 435.950
DUCHIFAT 1 05 Mar 22:22:12 22:23:56 12° 85° (E) 22:25:49 145.980
50 SAT 05 Mar 22:24:48 22:28:46 73° 257° (WSW) 22:32:44 437.505
ESTCUBE 1 05 Mar 22:25:16 22:29:45 63° 71° (ENE) 22:34:17 437.505/2401.250
UNISAT 6 05 Mar 22:26:49 22:30:15 23° 91° (E) 22:33:47 437.425
PCSat 05 Mar 22:30:25 22:35:34 41° 324° (NW) 22:40:43 145.827
Oscar 11 05 Mar 22:37:25 22:40:10 16° 273° (W) 22:42:48 145.826/435.025
GONETS M04 05 Mar 22:38:06 22:46:49 80° 283° (WNW) 22:55:36
AIST 2 05 Mar 22:38:48 22:41:55 19° 7° (N) 22:45:01 435.215
POPSAT HIP 1 05 Mar 22:44:19 22:47:25 20° 90° (E) 22:50:36 437.405
POLYITAN 1 05 Mar 22:45:34 22:48:45 21° 90° (E) 22:52:01 437.675
TIGRISAT 05 Mar 22:49:51 22:53:49 35° 97° (E) 22:57:49 435.000
ANTELSAT 05 Mar 23:05:20 23:09:32 50° 100° (E) 23:13:48 437.575/2403.000
NANOSAT C BR1 05 Mar 23:05:40 23:09:25 30° 94° (E) 23:13:11 145.865
HUMSAT D 05 Mar 23:06:08 23:09:34 24° 268° (W) 23:12:56 437.325/437.525
SWISSCUBE 05 Mar 23:07:44 23:10:12 14° 51° (NE) 23:12:48 437.505
DX 1 05 Mar 23:07:49 23:10:35 16° 273° (W) 23:13:12 434.975-435.025
CUBEBUG 2 05 Mar 23:09:48 23:11:15 11° 277° (W) 23:12:29 437.445
BEESAT 05 Mar 23:15:26 23:18:05 15° 52° (NE) 23:20:53 436.000
CUBEBUG 1 05 Mar 23:16:20 23:20:41 51° 260° (W) 23:25:04 437.445
TISAT 1 05 Mar 23:25:24 23:29:37 59° 71° (ENE) 23:33:51 437.305
AISAT 05 Mar 23:26:29 23:30:04 22° 269° (W) 23:33:34 437.250
DANDE 05 Mar 23:29:04 23:33:58 30° 96° (E) 23:37:50 436.750
BEESAT 3 05 Mar 23:30:33 23:34:23 34° 31° (NNE) 23:38:12 437.485
BUGSAT 1 05 Mar 23:31:00 23:34:56 40° 97° (E) 23:38:50 437.445
SPROUT 05 Mar 23:34:13 23:38:34 76° 74° (ENE) 23:42:56 437.525
VELOX 1 05 Mar 23:34:36 23:37:56 20° 271° (W) 23:41:11 145.980
CUSAT 1 05 Mar 23:37:43 23:42:35 39° 99° (E) 23:46:21 437.405
QB50P1 05 Mar 23:39:15 23:43:28 62° 101° (ESE) 23:47:40 145.935-145.965
ITUPSAT 1 05 Mar 23:43:46 23:47:29 23° 58° (ENE) 23:51:18 437.325
QB50P2 05 Mar 23:44:23 23:48:39 71° 104° (ESE) 23:52:52 145.880/145.840
DUCHIFAT 1 05 Mar 23:56:16 00:00:31 88° 105° (ESE) 00:04:44 145.980
BEESAT 2 06 Mar 00:00:08 00:04:11 45° 36° (NE) 00:08:13 435.950
UNISAT 6 06 Mar 00:03:11 00:07:21 50° 291° (WNW) 00:11:33 437.425
ESTCUBE 1 06 Mar 00:03:39 00:07:05 20° 271° (W) 00:10:28 437.505/2401.250
KKS-1 06 Mar 00:08:03 00:08:25 10° 48° (NE) 00:08:57 437.445
PCSat 06 Mar 00:16:16 00:20:23 21° 349° (N) 00:24:29 145.827
SO-50 06 Mar 00:17:16 00:18:52 12° 110° (ESE) 00:20:41 436.795
AIST 2 06 Mar 00:17:37 00:21:37 35° 31° (NNE) 00:25:35 435.215
POPSAT HIP 1 06 Mar 00:19:32 00:23:43 57° 290° (WNW) 00:27:51 437.405
POLYITAN 1 06 Mar 00:20:54 00:25:04 55° 290° (WNW) 00:29:10 437.675
TIGRISAT 06 Mar 00:26:44 00:30:35 33° 295° (WNW) 00:34:25 435.000
RS-15 06 Mar 00:28:30 00:39:27 88° 131° (SE) 00:50:42 29.354- 29.394
YUBILEINY 06 Mar 00:34:23 00:40:11 19° 41° (NE) 00:46:14 435.215
GONETS M04 06 Mar 00:38:17 00:45:20 26° 310° (NW) 00:52:13
NANOSAT C BR1 06 Mar 00:41:27 00:45:23 37° 294° (WNW) 00:49:15 145.865
SWISSCUBE 06 Mar 00:42:32 00:47:17 67° 70° (ENE) 00:52:06 437.505
ANTELSAT 06 Mar 00:42:37 00:46:08 25° 299° (WNW) 00:49:38 437.575/2403.000
BEESAT 06 Mar 00:50:28 00:55:13 73° 72° (ENE) 01:00:02 436.000
TISAT 1 06 Mar 01:02:36 01:05:49 20° 270° (W) 01:08:58 437.305
BUGSAT 1 06 Mar 01:06:43 01:10:21 28° 297° (WNW) 01:13:52 437.445
BEESAT 3 06 Mar 01:08:36 01:12:42 55° 232° (SW) 01:16:42 437.485
DANDE 06 Mar 01:11:51 01:17:16 43° 288° (WNW) 01:21:19 436.750
SPROUT 06 Mar 01:12:28 01:15:15 16° 273° (W) 01:17:54 437.525
QB50P1 06 Mar 01:15:50 01:19:01 21° 301° (WNW) 01:22:07 145.935-145.965
ITUPSAT 1 06 Mar 01:20:14 01:25:01 68° 257° (WSW) 01:29:51 437.325
CUSAT 1 06 Mar 01:21:06 01:25:28 28° 291° (WNW) 01:28:53 437.405
QB50P2 06 Mar 01:21:08 01:24:09 19° 302° (WNW) 01:27:03 145.880/145.840
Oscar 19 06 Mar 01:30:39 01:35:16 33° 94° (E) 01:39:54 437.125/150
Gurwin Techsat 1B 06 Mar 01:32:50 01:34:22 11° 80° (E) 01:36:11 435.225
DUCHIFAT 1 06 Mar 01:33:15 01:35:50 16° 304° (NW) 01:38:18 145.980
STARS 06 Mar 01:38:03 01:42:02 34° 64° (ENE) 01:46:03 437.465
ITAMSAT 1 06 Mar 01:38:06 01:41:07 16° 84° (E) 01:44:19 435.822/435.867
BEESAT 2 06 Mar 01:38:28 01:42:20 36° 237° (WSW) 01:46:08 435.950
KKS-1 06 Mar 01:39:50 01:44:09 49° 68° (ENE) 01:48:29 437.445
SO-50 06 Mar 01:53:56 01:58:32 61° 129° (SE) 02:03:20 436.795
AIST 2 06 Mar 01:56:13 02:00:27 56° 232° (SW) 02:04:36 435.215
POPSAT HIP 1 06 Mar 01:57:47 01:58:47 11° 309° (NW) 01:59:39 437.405
POLYITAN 1 06 Mar 01:59:29 02:00:10 10° 310° (NW) 02:00:40 437.675
PCSat 06 Mar 02:01:25 02:05:38 22° 15° (NNE) 02:09:52 145.827
SWISSCUBE 06 Mar 02:22:00 02:25:40 21° 271° (W) 02:29:15 437.505
BEESAT 06 Mar 02:30:11 02:33:39 19° 272° (W) 02:37:03 436.000
YUBILEINY 06 Mar 02:30:48 02:39:31 57° 70° (ENE) 02:48:13 435.215
